Flag for Spain Weather past 2 weeks in Santander, Spain

Now
73 °F

Scattered clouds.


Feels Like: 75 °F
Forecast: 64 / 72 °F
Wind: 7 mph from North

Location: Santander / Parayas

Current Time: Jul 24, 2014 at 6:28:09 PM

Latest Report: Jul 24, 2014 at 6:00 PM


Visibility: N/A

Pressure: 29.95 "Hg

Humidity: 74%

Dew point: 64 °F

Location of SantanderLocation

Historic Weather in Santander — Graph

°F

Santander temperature yesterday

Maximum temperature yesterday: 73 °F (at 11:00 AM)
Minimum temperature yesterday: 61 °F (at 5:30 AM)
Average temperature yesterday: 70 °F

Past Weeks' High & Low Weather Summary

 TemperatureHumidityPressure
High84 °F (Jul 17, 5:30 PM)100% (Jul 15, 6:00 AM)30.27 "Hg (Jul 15, 6:00 AM)
Low57 °F (Jul 10, 5:30 AM)32% (Jul 17, 5:00 PM)29.74 "Hg (Jul 19, 12:00 PM)
Average68 °F77%30.07 "Hg
* Reported Jul 9 5:00 PM — Jul 24 5:00 PM, Santander, Weather by CustomWeather, © 2014

Note: Actual official high and low records may vary slightly from our data, if they occured in-between our weather recording intervals... More about our weather records

Advertising

Santander weather history for previous 24 hours

 ConditionsComfort  
Time TempWeatherWind HumidityBarometerVisibility
5:00 PM
Jul 24
75 °FPassing clouds.7 mph65%29.95 "HgN/A
4:30 PM75 °FPassing clouds.7 mph65%29.95 "HgN/A
4:00 PM73 °FPassing clouds.7 mph69%29.95 "HgN/A
3:30 PM75 °FPassing clouds.8 mph61%29.95 "HgN/A
3:00 PM75 °FPassing clouds.8 mph65%29.95 "HgN/A
2:30 PM75 °FPassing clouds.9 mph61%29.95 "HgN/A
2:00 PM75 °FPassing clouds.8 mph61%29.95 "HgN/A
1:30 PM73 °FPassing clouds.7 mph69%29.95 "HgN/A
1:00 PM73 °FScattered clouds.3 mph69%29.95 "HgN/A
12:30 PM72 °FScattered clouds.5 mph69%29.98 "HgN/A
12:00 PM72 °FScattered clouds.2 mph73%29.98 "HgN/A
11:30 AM72 °FScattered clouds.3 mph73%29.95 "HgN/A
11:00 AM70 °FScattered clouds.1 mph78%29.95 "HgN/A
10:30 AM72 °FScattered clouds.2 mph73%29.95 "HgN/A
10:00 AM70 °FScattered clouds.2 mph83%29.95 "Hg5 mi
9:30 AM70 °FFog.1 mph83%29.95 "Hg3 mi
9:00 AM68 °FFog.1 mph88%29.95 "Hg2 mi
8:30 AM66 °FFog.2 mph94%29.95 "Hg2 mi
7:30 AM64 °FFog.1 mph94%29.95 "Hg2 mi
7:00 AM64 °FFog.2 mph94%29.92 "Hg2 mi
6:30 AM64 °FFog.5 mph94%29.92 "Hg2 mi
6:00 AM64 °FFog.3 mph94%29.92 "Hg2 mi
5:30 AM64 °FFog.No wind94%29.92 "Hg2 mi
11:00 PM
Jul 23
70 °FPassing clouds.3 mph88%29.95 "HgN/A
10:30 PM70 °FPassing clouds.3 mph88%29.92 "HgN/A
10:00 PM70 °FPassing clouds.5 mph88%29.92 "HgN/A
9:30 PM72 °FPassing clouds.6 mph88%29.92 "HgN/A
9:00 PM72 °FPassing clouds.7 mph88%29.92 "HgN/A
8:30 PM72 °FPassing clouds.8 mph88%29.92 "HgN/A
8:00 PM72 °FPassing clouds.12 mph88%29.92 "HgN/A
7:30 PM72 °FPassing clouds.10 mph88%29.92 "HgN/A
7:00 PM72 °FPassing clouds.10 mph88%29.92 "HgN/A
6:30 PM73 °FPassing clouds.12 mph83%29.89 "HgN/A
6:00 PM73 °FPassing clouds.12 mph78%29.89 "HgN/A
Weather by CustomWeather, © 2014

See weather overviewHow to use our weather pages